Weather History for Kinloss, United Kingdom

Change the Weather History Date:

Wednesday, December 12, 2012

  Actual Average Record
Temperature  
Mean Temperature 32 °F -  
Max Temperature 35 °F 44 °F 57 °F (2013)
Min Temperature 28 °F 33 °F 26 °F (2001)
Degree Days  
Heating Degree Days 33    
Moisture  
Dew Point 27 °F    
Average Humidity 80    
Maximum Humidity 93    
Minimum Humidity 62    
Precipitation  
Precipitation 0.08 in 0.07 in - ()
Sea Level Pressure  
Sea Level Pressure 29.99 in    
Wind  
Wind Speed 5 mph ()    
Max Wind Speed 8 mph    
Max Gust Speed -    
Visibility 7.4 miles    
Events Rain , Snow    
Averages and records for this station are not official NWS values.
T = Trace of Precipitation, MM = Missing Value Source: Averaged Metar Reports

Daily Weather History Graph

Daily Weather History Graph

Search for Another Location

Airport:

Trip Planner

Search our weather history database for the weather conditions in past years. The results will help you decide how hot, cold, wet, or windy it might be!

Date:

Astronomy

Dec. 12, 2012 Rise Set
Actual Time 8:48 AM GMT 3:27 PM GMT
Civil Twilight 7:57 AM GMT 4:18 PM GMT
Nautical Twilight 7:06 AM GMT 5:09 PM GMT
Astronomical Twilight 6:18 AM GMT 5:57 PM GMT
Moon 7:30 AM GMT (12/12) 2:55 PM GMT (12/12)
Length of Visible Light 8h 20m
Length of Day
6h 39m
Waning Crescent, 1% of the Moon is Illuminated
Dec 12
Waning Crescent
Dec 13
New
Dec 20
First Quarter
Dec 28
Full
Jan 5
Last Quarter

Hourly Weather History & Observations

Time (GMT) Temp. Windchill Dew Point Humidity Pressure Visibility Wind Dir Wind Speed Gust Speed Precip Events Conditions
12:50 AM 30.2 °F 24.3 °F 23.0 °F 75% 30.21 in 6.2 mi SW 5.8 mph - N/A   Overcast
1:50 AM 30.2 °F 23.4 °F 23.0 °F 75% 30.18 in 6.2 mi SSW 6.9 mph - N/A   Overcast
2:50 AM 31 °F - 23 °F 62% 30.17 in 34 mi SW 8.1 mph - -   Mostly Cloudy
2:50 AM 32.0 °F 24.8 °F 23.0 °F 69% 30.15 in 6.2 mi SW 8.1 mph - N/A   Mostly Cloudy
3:50 AM 30.2 °F 22.6 °F 23.0 °F 75% 30.12 in 6.2 mi SW 8.1 mph - N/A   Mostly Cloudy
4:50 AM 32.0 °F 24.8 °F 23.0 °F 69% 30.09 in 6.2 mi SW 8.1 mph - N/A   Mostly Cloudy
5:50 AM 32 °F - 24 °F 63% 30.09 in 28 mi SW 6.9 mph - -  
5:50 AM 32.0 °F 25.6 °F 24.8 °F 75% 30.06 in 6.2 mi SW 6.9 mph - N/A   Overcast
6:50 AM 32.0 °F 27.5 °F 24.8 °F 75% 30.06 in 6.2 mi SW 4.6 mph - N/A   Overcast
7:50 AM 32.0 °F 26.4 °F 26.6 °F 80% 30.06 in 6.2 mi WSW 5.8 mph - N/A   Mostly Cloudy
8:50 AM 32 °F - 26 °F 69% 30.05 in 25 mi SW 5.8 mph - - Snow Snow
8:50 AM 32.0 °F 26.4 °F 26.6 °F 80% 30.04 in 6.2 mi SW 5.8 mph - N/A   Mostly Cloudy
9:50 AM 33.8 °F 27.7 °F 26.6 °F 75% 30.04 in 6.2 mi WSW 6.9 mph - N/A   Mostly Cloudy
10:50 AM 33.8 °F 27.7 °F 28.4 °F 81% 30.01 in 6.2 mi SW 6.9 mph - N/A Snow Snow Grains
11:50 AM 35 °F - 28 °F 68% 30.01 in 19 mi SW 4.6 mph - - Rain Drizzle
11:50 AM 35.6 °F 32.8 °F 28.4 °F 75% 30.01 in 6.2 mi SSW 3.5 mph - N/A Snow Light Snow Showers
1:50 PM 35.6 °F 31.7 °F 30.2 °F 81% 29.95 in 6.2 mi SW 4.6 mph - N/A Rain Light Rain
2:50 PM 33 °F - 30 °F 86% 29.96 in 2 mi SW 4.6 mph - - Snow Light Snow
2:50 PM 33.8 °F 29.6 °F 30.2 °F 87% 29.95 in - SW 4.6 mph - N/A Rain , Snow Light Rain
3:50 PM 33.8 °F 28.6 °F 30.2 °F 87% 29.92 in 6.2 mi South 5.8 mph - N/A   Mostly Cloudy
4:50 PM 33.8 °F 28.6 °F 32.0 °F 93% 29.92 in 6.2 mi SSW 5.8 mph - N/A   Mostly Cloudy
5:50 PM 33 °F - 30 °F 86% 29.91 in 17 mi SSW 5.8 mph - -   Mostly Cloudy
5:50 PM 33.8 °F 28.6 °F 30.2 °F 87% 29.89 in 6.2 mi SSW 5.8 mph - N/A   Mostly Cloudy
6:50 PM 32.0 °F 28.7 °F 28.4 °F 87% 29.89 in 6.2 mi West 3.5 mph - N/A   Mostly Cloudy
7:50 PM 32.0 °F 27.5 °F 30.2 °F 93% 29.89 in 6.2 mi SW 4.6 mph - N/A   Mostly Cloudy
8:50 PM 32 °F - 28 °F 81% 29.88 in 22 mi SSW 5.8 mph - -   Scattered Clouds
8:50 PM 32.0 °F 26.4 °F 28.4 °F 87% 29.86 in 6.2 mi SSW 5.8 mph - N/A   Overcast
9:50 PM 32.0 °F 28.7 °F 28.4 °F 87% 29.86 in 6.2 mi SSW 3.5 mph - N/A   Overcast
10:50 PM 30.2 °F - 26.6 °F 86% 29.83 in 6.2 mi SW 2.3 mph - N/A   Overcast
11:50 PM 29 °F - 26 °F 84% 29.84 in 18 mi Calm Calm - -   Overcast
11:50 PM 28.4 °F - 26.6 °F 93% 29.83 in 6.2 mi Calm Calm - N/A   Overcast